sat.trackr.live / text

‹ back to catalog

STARLINK-36115

NORAD 66946 · 2025-286X

PAYLOAD ACTIVE UNKNOWN

§ Identity

Operator
Country
US
Launch date
2025-12-07
Launch site
AFWTR
Launch vehicle
Mass (kg)
RCS (m²)

Purposes: comms

External: N2YO · Heavens-Above · Gunter

§ Orbital elements

Epoch: 2026-09-19T05:42:21.390912Z

Period
93.85 min
Inclination
53.1570°
Eccentricity
0.0001821
Mean motion
15.34408011 rev/d
Perigee alt
461.4 km
Apogee alt
463.9 km
Semi-major
6,840.8 km
B*
4.3354e-4
RAAN
175.6212°
Arg perigee
120.8373°
Mean anomaly
239.2809°
Rev number
4,510

§ Raw data

STARLINK-361151 66946U 25286X   26262.23774758  .00014303  00000+0  43354-3 0  99972 66946  53.1570 175.6212 0001821 120.8373 239.2809 15.34408011 45104

JSON: /api/v1/satellites/66946 · /tle

For live sub-satellite position, see the globe view (requires WebGL).

§ Visibility from observer

Set your observer location to see the next 7 days of passes ≥ 10°. The values pass through the URL so the page stays shareable.

No JS? Fill the form by hand. The geolocation button needs JavaScript.